Regional Weather Roundup
Issued by NWS

Home | Current Version | Previous Version | Text Only | Print | Product List | Glossary On
Versions: 1 2 3 4 5 6 7 8 9 10 11 12 13 14 15 16 17 18 19 20 21 22 23 24 25 26 27 28 29 30 31 32 33 34 35 36 37 38 39 40 41 42 43 44 45 46 47 48 49 50
000
ASUS44 KMEG 221110
RWRTN
TENNESSEE HOURLY STATE WEATHER ROUNDUP
NATIONAL WEATHER SERVICE MEMPHIS TN
600 AM CDT TUE JUL 22 2014

TNZ002-004-019-021-049-052-054-088>092-221200-
WEST TENNESSEE

CITY           SKY/WX    TMP DP  RH WIND       PRES   REMARKS
MEMPHIS INTL   PTCLDY    71  66  84 CALM      30.08R
NWS MEMPHIS      N/A     67 N/A N/A MISG        N/A
JACKSON        CLEAR     65  63  93 CALM      30.09R FOG
DYERSBURG      CLEAR     66  57  72 CALM      30.10R
UNION CITY     CLEAR     66  66 100 CALM      30.09R
PARIS          CLEAR     63  62  96 CALM      30.10R
LEXINGTON      CLEAR     66  64  94 CALM      30.08R
SAVANNAH       CLEAR     67  67 100 CALM      30.08S
$$

TNZ008-025-027-028-033-062-065-066-221200-
NORTH MIDDLE TENNESSEE

CITY           SKY/WX    TMP DP  RH WIND       PRES   REMARKS
NASHVILLE      PTCLDY    72  70  93 CALM      30.10R
DICKSON        CLEAR     66  66 100 SE3       30.10R
PORTLAND       CLEAR     70  70 100 S5        30.10R
CLARKSVILLE    CLEAR     67  64  90 CALM      30.09R FOG
LEBANON        CLEAR     68  67  96 CALM      30.09R
SMYRNA         FOG       70  70 100 CALM      30.11R VSB 1/2
MURFREESBORO   CLEAR     70  69  96 SE5       30.10R
COOKEVILLE     CLEAR     66  66 100 CALM      30.14R
LIVINGSTON     PTCLDY    69  66  90 SW3       30.15R
GALLATIN       CLEAR     70  70 100 CALM      30.11R
CROSSVILLE     PTCLDY    66  63  90 CALM      30.18R
$$

TNZ061-075-076-078-094-096-097-221200-
SOUTH MIDDLE TENNESSEE

CITY           SKY/WX    TMP DP  RH WIND       PRES   REMARKS
LEWISBURG      CLEAR     68  66  93 CALM      30.10R
FAYETTEVILLE   CLOUDY    70  70 100 CALM      30.11R
TULLAHOMA      CLEAR     68  66  94 CALM      30.14R
WINCHESTER     MOCLDY    68  68 100 E3        30.13R
MCMINNVILLE    MOCLDY    68  68 100 CALM      30.14R VSB 1/2
COLUMBIA       CLOUDY    70  70 100 CALM      30.09R
SHELBYVILLE    CLEAR     72  70  94 CALM      30.12R
$$

TNZ017-018-042-046-047-221200-
NORTHEAST TENNESSEE

CITY           SKY/WX    TMP DP  RH WIND       PRES   REMARKS
TRI CITIES     PTCLDY    65  62  90 N3        30.18R FOG
ELIZABETHTON   SUNNY     63  63 100 CALM      30.19R
$$

TNZ012-013-036-069-073-074-221200-
CENTRAL EAST TENNESSEE

CITY           SKY/WX    TMP DP  RH WIND       PRES   REMARKS
KNOXVILLE      MOCLDY    70  70 100 CALM      30.13R FOG
OAK RIDGE      FOG       71  71 100 CALM      30.15R VSB<1/4
GATLINBURG     PTSUNNY   68  66  94 CALM      30.14R
MORRISTOWN     MOSUNNY   68  66  94 E3        30.17R
$$

TNZ083-085-099-221200-
SOUTHEAST TENNESSEE

CITY           SKY/WX    TMP DP  RH WIND       PRES   REMARKS
CHATTANOOGA    MOCLDY    72  69  90 CALM      30.13R
$$

SKY/WX REPORTED AS FAIR MEANS FEW OR NO CLOUDS BELOW
12 THOUSAND FEET.



USA.gov is the U.S. government's official web portal to all federal, state and local government web resources and services.